Theta_e
323 323 323 322 322 322 322 322 322 322 322 323 323 324 324 326 326 327 321 331 344 366 366 353 352 349 349 343 343 341 326 320 320 321 326 334 330 336 340 336 337 338 338 342 345
323 323 322 321 321 321 321 321 321 321 322 322 323 323 324 326 326 321 339 358 363 367 357 346 343 344 343 341 341 335 325 325 330 332 329 332 332 335 334 333 335 336 342 344 343
322 322 321 321 321 321 321 321 321 320 320 321 322 324 325 328 324 332 354 365 363 368 351 348 347 343 340 340 336 332 325 330 331 334 335 332 332 337 333 328 333 334 338 342 341
321 321 321 320 320 320 320 320 320 320 320 321 322 324 326 330 315 340 361 363 367 360 349 345 343 338 336 328 334 328 331 331 332 335 334 332 334 331 334 337 340 341 342 341 340
320 320 320 320 319 319 319 319 319 319 320 321 323 325 327 320 324 344 362 365 358 355 345 342 338 335 329 329 332 327 330 332 333 333 335 335 332 334 335 338 340 343 342 339 339
320 320 319 319 319 319 319 318 319 319 320 322 324 325 325 316 341 349 348 354 350 346 343 341 339 338 335 329 327 329 329 329 333 333 333 332 334 336 336 338 340 340 338 338 337
320 319 319 319 319 319 318 317 318 319 320 322 326 329 321 319 337 352 351 349 346 344 339 342 344 338 335 329 333 329 324 326 330 332 332 335 330 332 337 339 338 336 336 336 337
319 318 318 318 318 317 317 316 317 319 321 325 326 329 316 326 343 348 351 346 346 345 342 345 346 339 335 333 332 322 323 317 324 330 332 333 325 334 338 336 336 337 335 335 338
319 318 318 317 317 316 316 316 319 321 325 327 327 326 315 335 333 345 346 340 343 343 343 343 341 334 331 324 317 316 311 312 320 329 328 330 327 335 338 336 335 336 337 337 337
319 317 317 317 317 316 316 320 322 324 327 328 327 316 319 317 336 341 342 339 337 337 336 336 333 326 324 317 308 309 310 312 314 324 326 324 328 333 336 336 335 336 338 337 337
318 317 316 316 316 315 317 327 327 325 319 320 315 318 317 328 339 335 338 338 336 333 324 328 319 316 317 316 315 313 312 311 314 321 322 324 328 332 335 336 334 336 337 339 340
317 317 316 315 315 314 319 326 326 327 319 322 320 321 323 330 322 331 338 327 326 319 322 320 315 319 318 317 315 313 311 312 320 324 323 321 325 331 333 334 336 335 337 337 339
317 316 315 314 313 315 323 329 332 330 320 317 321 320 320 323 318 325 332 327 320 316 317 316 318 320 316 315 312 313 310 310 310 316 322 324 321 326 332 334 336 336 337 338 338
316 316 314 313 309 330 327 333 330 330 313 312 316 319 321 322 316 324 328 324 318 314 316 316 320 315 313 312 313 309 313 312 312 313 310 319 308 324 328 328 331 335 335 336 338
315 314 312 310 325 324 327 329 331 328 302 314 316 324 322 318 318 318 326 322 314 314 317 315 315 312 312 312 314 311 314 314 314 313 312 313 313 320 328 327 329 333 336 336 339
314 313 312 317 323 328 327 330 328 313 301 310 315 314 314 316 315 319 321 324 324 319 319 318 320 317 315 315 315 315 314 315 315 314 307 311 312 309 322 327 330 333 335 337 338
311 310 313 328 327 330 331 327 314 308 314 309 311 314 313 312 314 316 316 316 314 311 311 314 314 316 316 314 317 314 312 305 305 305 302 313 313 315 321 328 331 332 334 337 339
309 308 317 328 332 330 328 320 311 311 313 315 313 313 311 314 314 315 315 313 317 315 311 309 307 314 318 316 313 314 313 306 301 303 305 313 307 313 325 329 331 334 336 337 337
308 329 330 333 331 331 324 314 312 314 316 314 313 310 310 312 313 313 313 313 315 316 310 311 310 317 317 318 317 314 311 316 308 310 307 309 315 323 325 326 329 330 333 333 335
326 329 330 332 334 329 320 310 316 319 318 317 311 313 310 311 310 312 312 315 313 316 319 315 309 316 317 318 318 315 317 309 310 302 301 307 307 314 320 324 328 329 329 332 334
328 321 331 335 333 325 316 317 318 320 320 316 315 313 315 312 313 312 312 315 316 316 318 316 314 313 318 314 313 314 312 312 312 310 304 303 306 318 323 326 326 328 328 331 335
331 317 334 335 321 320 317 320 308 320 321 319 318 317 315 315 313 313 312 315 319 318 314 318 314 310 312 317 317 315 313 314 308 306 311 308 311 320 318 327 329 330 333 336 339
324 324 335 331 314 316 321 319 320 319 319 318 316 318 318 316 313 315 316 319 319 318 317 318 313 308 309 313 316 313 315 314 314 313 308 306 309 324 327 330 331 331 336 341 342
325 317 325 325 324 320 319 318 317 321 320 320 319 319 317 315 317 315 315 318 320 319 325 320 314 311 307 310 314 311 312 313 313 308 308 309 314 320 323 328 331 333 337 340 341
327 322 322 319 319 319 319 319 317 316 321 321 319 318 316 314 315 314 316 318 318 314 318 318 311 314 313 312 312 311 311 312 311 312 309 311 312 316 323 328 331 335 336 338 340
321 319 323 319 320 319 312 316 316 318 319 318 317 319 318 315 316 315 317 317 316 319 317 319 312 313 311 313 312 310 311 312 312 313 313 313 312 320 328 332 333 331 334 336 340
323 325 323 315 318 314 315 318 317 320 322 322 321 320 318 320 324 324 324 322 321 318 317 315 314 312 308 313 312 308 312 312 312 314 313 310 315 320 324 326 330 332 332 337 340
Wind_Speed
15 14 12 11 10 10 9 9 9 9 8 8 7 9 10 12 15 10 10 4 7 17 12 12 10 9 8 7 12 3 3 2 11 11 10 8 6 7 6 8 4 3 2 24 27
15 14 13 12 10 9 9 8 9 9 8 8 7 9 9 10 13 15 13 10 23 19 18 12 12 11 10 7 7 10 6 17 13 13 9 8 7 9 7 9 6 6 18 27 27
16 14 13 11 10 9 9 8 8 9 8 7 7 9 9 11 12 6 9 17 22 20 12 8 6 8 8 11 8 4 7 6 8 9 6 4 3 8 10 4 5 11 19 25 26
16 15 13 12 10 9 8 8 7 8 9 7 7 9 9 11 3 8 7 16 19 20 10 10 10 5 16 9 5 6 4 6 5 7 0 3 6 2 10 10 3 17 21 22 27
16 14 13 11 10 8 8 7 8 8 9 8 7 8 9 10 2 9 10 13 18 18 13 13 18 12 14 9 5 6 6 3 4 2 7 2 3 9 7 4 4 14 19 23 23
16 14 13 11 10 9 7 8 8 9 9 8 8 7 9 13 7 12 17 19 16 14 14 11 13 13 14 5 9 5 2 2 6 5 3 4 8 6 6 7 10 13 17 19 19
17 15 13 11 10 9 8 8 9 10 9 8 8 8 11 4 1 14 16 16 9 12 11 6 11 14 15 9 7 1 5 8 7 7 8 9 8 10 8 9 12 13 15 14 17
17 15 13 11 9 9 9 9 10 10 9 9 7 11 1 4 6 11 17 12 7 7 11 6 10 16 19 10 13 10 11 8 6 8 6 13 10 9 8 9 10 16 13 13 13
17 16 13 11 10 9 10 10 10 10 9 7 9 11 7 4 13 11 13 12 10 8 8 9 14 17 17 20 11 5 8 8 12 8 8 10 11 10 10 10 11 9 12 14 12
17 15 14 11 10 8 10 8 7 8 8 9 8 9 8 13 11 10 9 7 10 9 12 14 17 17 13 7 12 6 6 4 8 10 7 5 12 13 11 12 12 13 13 14 16
18 15 14 10 9 8 6 6 8 9 10 9 18 5 12 10 11 12 11 11 12 9 16 11 11 10 11 9 6 6 7 6 9 6 6 7 13 12 12 12 14 14 14 17 18
18 15 14 10 8 8 8 9 11 9 6 9 1 3 6 15 11 13 11 11 15 15 17 9 16 6 4 7 10 8 8 11 11 9 3 2 14 14 14 13 14 15 16 17 18
18 16 14 10 7 6 13 13 8 7 7 9 9 10 11 10 13 18 15 15 15 14 16 14 13 8 7 11 7 12 7 10 9 5 12 15 8 10 15 13 13 14 15 17 17
19 16 14 7 3 8 10 6 6 4 7 11 10 7 8 11 7 11 17 16 12 15 13 11 8 4 10 9 8 10 6 6 8 12 8 15 7 16 15 13 13 15 16 18 19
20 16 12 10 12 9 6 5 5 6 4 13 11 10 11 15 12 11 11 11 17 13 11 13 8 5 11 9 7 10 5 10 10 14 7 13 9 14 19 18 18 17 18 18 20
22 17 8 7 8 14 7 6 7 11 6 10 10 12 12 13 7 12 11 9 10 9 12 13 7 8 9 7 5 8 14 15 13 13 11 5 15 12 18 16 18 18 17 17 20
23 16 8 9 2 2 5 8 10 9 8 11 15 15 17 11 12 14 14 16 11 16 16 18 15 4 6 14 10 11 19 7 7 6 5 5 13 4 12 20 18 19 17 18 16
26 10 13 9 5 7 7 11 16 6 6 5 7 13 9 15 16 14 14 15 15 12 8 11 12 15 8 7 13 11 14 4 6 4 4 1 12 4 16 9 18 15 15 14 14
28 7 9 8 10 6 9 13 5 8 4 7 9 10 10 9 3 14 12 14 11 11 13 3 7 6 2 6 9 5 8 12 13 10 9 5 12 16 15 16 15 13 11 10 9
8 8 6 5 8 8 10 16 2 5 3 6 12 11 14 15 10 11 13 5 5 5 11 6 10 4 10 8 11 13 10 8 6 4 6 9 16 12 6 18 16 18 15 11 9
7 7 9 8 6 8 12 13 5 6 4 8 10 5 10 8 12 13 7 10 2 6 8 15 13 6 12 3 12 7 11 9 9 8 10 5 6 3 20 16 18 17 12 15 10
8 7 6 6 9 10 14 14 4 10 9 10 7 17 6 5 12 14 8 3 4 4 12 9 12 11 7 10 4 10 16 14 9 2 15 4 3 28 38 16 16 19 14 14 11
7 8 7 7 12 12 15 6 8 9 12 9 9 9 6 9 7 7 2 8 4 7 7 5 10 11 11 15 12 9 1 12 13 14 7 5 2 11 6 13 13 17 15 12 11
7 5 7 7 10 13 15 12 15 9 12 7 11 7 9 11 8 6 7 8 6 7 7 4 15 18 10 11 11 1 4 6 15 10 6 3 17 17 9 11 6 16 15 14 12
3 3 6 4 5 9 11 12 12 12 11 5 11 15 14 14 13 10 12 14 8 5 7 10 17 14 4 3 7 11 10 9 11 14 15 11 11 4 9 14 10 12 13 13 12
8 6 8 12 10 9 8 14 15 15 3 12 12 12 8 13 13 10 10 8 8 13 13 13 15 8 8 12 10 11 12 13 14 14 14 14 13 11 15 10 7 7 13 13 12
8 9 7 6 11 9 9 8 5 6 12 9 7 9 15 6 9 11 15 16 13 7 12 14 10 9 10 12 8 10 13 15 15 15 15 14 10 6 9 5 7 9 12 14 13
Wind_Direction
341 333 333 331 325 314 314 310 308 310 309 313 316 307 309 309 293 212 245 169 166 176 226 139 176 191 199 241 267 42 229 14 51 69 117 144 130 152 49 131 143 147 105 136 154
336 335 334 330 325 314 311 307 306 301 307 309 314 302 305 312 272 258 113 139 146 181 203 176 190 185 202 180 232 239 241 47 10 27 57 145 157 113 174 149 144 151 99 135 157
339 335 334 330 325 317 308 303 299 296 301 307 309 300 303 294 266 94 199 158 163 189 191 217 207 230 241 205 129 349 19 30 51 27 6 41 151 175 207 173 164 136 133 147 156
339 337 332 332 327 317 309 302 293 290 295 298 301 298 304 255 279 58 180 163 173 202 190 219 214 23 264 123 127 181 29 22 39 59 27 305 54 17 16 27 123 137 147 157 163
341 337 337 332 327 319 308 298 292 286 286 295 293 297 268 219 17 131 169 172 183 222 215 241 273 341 5 23 145 1 71 194 129 358 17 90 80 65 48 2 151 127 152 163 171
342 342 339 336 327 319 307 295 284 283 287 289 286 293 240 240 79 134 171 172 191 205 231 264 321 332 289 338 14 0 3 17 150 161 117 131 115 222 83 85 108 149 158 164 166
345 344 342 338 327 319 305 290 279 277 285 280 275 262 254 62 35 155 163 196 200 221 255 277 303 300 331 321 61 5 224 141 157 159 140 130 146 85 99 125 137 143 144 162 169
347 344 340 337 330 318 301 286 275 272 274 267 260 249 218 135 139 172 181 189 227 245 265 280 294 289 260 276 237 226 227 125 105 153 137 221 107 121 134 135 134 142 143 161 163
342 342 339 334 327 312 295 282 260 253 249 237 228 239 166 147 189 184 190 189 197 224 251 276 273 265 275 239 191 19 44 64 133 202 147 241 120 147 147 134 143 155 155 166 174
339 339 336 330 319 307 303 278 192 208 216 213 271 235 192 201 136 171 213 254 195 219 238 236 238 253 276 331 34 353 34 36 86 133 220 172 111 156 164 146 155 162 176 175 193
337 333 333 326 313 308 275 181 201 187 209 290 159 274 129 92 151 194 188 217 230 217 270 185 288 272 25 32 311 314 319 112 78 109 235 173 136 158 171 160 156 166 176 186 190
334 331 331 322 304 297 271 251 26 334 179 204 140 282 141 179 181 178 192 222 215 251 246 232 243 44 329 302 289 283 278 92 131 143 203 228 136 160 178 179 168 171 179 182 179
332 329 329 321 298 227 236 274 334 300 241 165 186 191 172 210 214 179 200 214 259 244 258 270 310 359 286 279 300 293 22 7 331 204 214 156 119 166 177 186 172 178 180 180 180
329 327 324 324 245 206 225 199 287 296 235 137 169 142 167 225 211 160 191 234 226 253 245 259 271 303 274 293 291 309 12 290 273 272 205 230 131 203 185 188 188 187 188 183 186
327 324 312 247 323 247 17 293 323 231 219 162 135 126 171 231 116 179 194 216 259 210 251 196 218 275 299 315 328 308 320 277 284 257 200 196 120 156 169 180 190 200 191 191 187
325 321 295 191 228 264 297 284 243 234 110 148 142 184 191 220 175 136 186 245 276 281 218 286 297 282 288 298 255 298 262 238 219 243 229 141 117 289 172 170 184 194 193 197 189
326 317 223 313 307 11 266 252 233 258 153 141 171 167 209 176 145 172 192 197 224 203 200 211 225 171 248 251 207 226 244 259 251 200 157 264 49 231 110 141 180 183 193 191 195
325 315 201 273 297 270 246 244 255 65 197 102 169 182 216 158 163 194 177 210 229 280 278 219 156 195 164 283 339 322 315 285 181 339 325 54 128 288 121 106 148 160 172 174 188
313 197 215 170 219 250 257 245 245 179 83 189 166 195 181 183 246 200 219 220 200 202 268 172 149 153 145 306 292 294 261 357 308 186 103 352 153 139 146 146 132 115 115 131 174
305 236 164 148 186 223 250 261 359 3 291 257 224 215 187 178 200 201 189 204 185 232 281 354 259 151 138 233 230 276 351 263 262 193 279 166 227 147 139 150 138 119 117 125 132
254 235 113 169 204 232 246 251 138 166 249 256 284 199 282 161 191 218 227 126 234 179 254 283 275 160 219 245 357 312 235 231 310 330 315 269 54 149 179 171 128 126 130 125 131
287 245 130 196 227 232 243 261 22 259 192 262 274 290 289 200 207 253 235 168 91 199 214 238 323 290 315 68 310 270 282 302 272 42 291 335 200 129 281 125 143 116 123 112 112
293 296 149 220 244 242 229 242 232 256 239 251 248 244 224 253 263 278 233 78 187 244 337 285 245 265 280 160 170 244 59 287 294 312 327 346 60 305 57 116 136 123 124 131 131
275 264 175 214 266 285 294 203 225 185 283 283 275 293 264 249 243 264 232 141 217 250 30 300 278 287 298 14 346 63 212 289 300 287 302 274 154 207 152 132 130 127 142 147 141
258 49 12 285 198 281 294 280 282 234 212 213 247 254 250 248 236 219 247 136 190 129 219 244 266 285 293 294 283 300 301 292 281 302 313 343 351 89 141 149 156 144 149 147 146
329 338 353 287 289 257 230 251 248 262 257 264 225 277 270 279 289 297 240 220 199 168 238 235 259 286 268 282 250 258 268 272 272 274 281 285 288 299 103 107 147 201 167 166 134
0 327 277 279 268 252 268 288 297 346 274 278 338 309 257 329 355 319 314 314 301 221 215 244 250 249 262 284 290 252 256 255 255 261 269 261 275 351 112 149 177 193 195 153 143